Location: Arbon
(43.0005°N, 0.7472°E)
Time: 11:10:42
(UTC+00:00)

ATLAS 2AS CENTAUR R/B - Pass Details

Date: 22 April 2026
Orbit: 1052 x 1158 km, 63.7° (Epoch: 15 May)

Event Time Altitude Azimuth Distance (km) Brightness Sun altitude
Exits shadow 23:25:29 65° 27° (NNE) 1,178 2.9 -34.1°
Drops below altitude 10° 23:31:12 10° 35° (NE) 2,896 5.5 -34.3°
Sets 23:33:49 0° 36° (NE) 3,845 6.2 -34.3°
